This is the latest recevied weather packets stored in our database for station/object W2TAO. If no packets are shown the sender has not sent any weather packets the latest 10 day(s).
| Time | Temp. | Humidity | Pressure | Rain* | Wind** | Luminosity | Snow |
|---|---|---|---|---|---|---|---|
| 1777807649 | 2.78° C | 79% | 1013.6 hPa | 0 mm | - | 92 W/m² | - |
| 1777807346 | 2.78° C | 79% | 1013.5 hPa | 0 mm | - | 79 W/m² | - |
| 1777807042 | 2.22° C | 80% | 1013.4 hPa | 0 mm | - | 58 W/m² | - |
| 1777806739 | 2.22° C | 81% | 1013.5 hPa | 0 mm | - | 46 W/m² | - |
| 1777806435 | 2.22° C | 82% | 1013.3 hPa | 0 mm | - | 39 W/m² | - |
| 1777806132 | 2.22° C | 81% | 1013.2 hPa | 0 mm | - | 38 W/m² | - |
| 1777805829 | 2.22° C | 83% | 1013.2 hPa | 0 mm | - | 35 W/m² | - |
| 1777805526 | 1.67° C | 82% | 1013.1 hPa | 0 mm | - | 32 W/m² | - |
| 1777805223 | 1.67° C | 82% | 1013.1 hPa | 0 mm | - | 30 W/m² | - |
| 1777804921 | 1.67° C | 81% | 1012.9 hPa | 0 mm | - | 28 W/m² | - |
| 1777804619 | 1.67° C | 81% | 1012.9 hPa | 0 mm | - | 27 W/m² | - |
| 1777804317 | 1.67° C | 81% | 1012.9 hPa | 0 mm | - | 25 W/m² | - |
| 1777804013 | 1.67° C | 81% | 1013.1 hPa | 0 mm | - | 22 W/m² | - |
| 1777803710 | 1.67° C | 81% | 1012.9 hPa | 0 mm | - | 19 W/m² | - |
| 1777803405 | 1.67° C | 82% | 1012.9 hPa | 0 mm | - | 15 W/m² | - |
| 1777803104 | 1.67° C | 80% | 1012.8 hPa | 0 mm | - | 12 W/m² | - |
| 1777802800 | 1.67° C | 81% | 1012.8 hPa | 0 mm | - | 9 W/m² | - |
| 1777802498 | 1.67° C | 80% | 1012.7 hPa | 0 mm | - | 6 W/m² | - |
| 1777802196 | 1.67° C | 81% | 1012.6 hPa | 0 mm | - | 4 W/m² | - |
| 1777801894 | 1.67° C | 80% | 1012.6 hPa | 0 mm | - | 2 W/m² | - |
| 1777801590 | 2.22° C | 80% | 1012.6 hPa | 0 mm | - | 1 W/m² | - |
| 1777801288 | 2.22° C | 80% | 1012.4 hPa | 0 mm | - | 0 W/m² | - |
| 1777800984 | 2.22° C | 79% | 1012.4 hPa | 0 mm | - | 0 W/m² | - |
| 1777800681 | 2.22° C | 78% | 1012.4 hPa | 0 mm | - | 0 W/m² | - |
| 1777800376 | 2.22° C | 77% | 1012.3 hPa | 0 mm | - | 0 W/m² | - |
* Rain latest hour (hover to see other rain measurements)
** Current wind speed in m/s (hover to see current wind gust speed)